Location: Hilton Head Island
(32.2163°N, 80.7526°W)
Time: 15:23:38
(UTC-05:00)

Explorer 11/Cluster Stage 4 - Pass Details

Date: 24 February 2026
Orbit: 463 x 1176 km, 28.8° (Epoch: 6 March)

Event Time Altitude Azimuth Distance (km) Brightness Sun altitude
Rises 08:51:02 0° 224° (SW) 3,869 10.0 22.1°
Reaches altitude 10° 08:54:25 10° 213° (SSW) 2,814 9.4 22.8°
Maximum altitude 08:59:55 26° 159° (SSE) 1,732 9.4 23.8°
Drops below altitude 10° 09:04:40 10° 105° (ESE) 2,411 10.7 24.7°
Sets 09:07:20 0° 92° (E) 3,216 10.7 25.2°
